Location: ????????
(38.4362°N, 22.8767°E)
Time: 17:41:30
(UTC+00:00)

ACS3 Solar Sail - Pass Details

Date: 26 June 2024
Orbit: 992 x 1023 km, 97.4° (Epoch: 14 July)

Event Time Altitude Azimuth Distance (km) Brightness Sun altitude
Exits shadow 21:49:30 - 247° (WSW) 3,025 7.2 -27.5°
Reaches altitude 10° 21:52:22 10° 272° (W) 2,761 7.3 -27.6°
Maximum altitude 21:52:39 10° 274° (W) 2,759 7.3 -27.6°
Drops below altitude 10° 21:52:57 10° 277° (W) 2,761 7.3 -27.6°
Sets 21:59:02 0° 323° (NW) 3,715 8.8 -27.8°
